Year,Month,Day,Hour,Minute,Value (Times are PST for insolation in W/m^2)
2015,05,25,00,00,0.00
2015,05,25,00,01,0.00
2015,05,25,00,02,0.00
2015,05,25,00,03,0.00
2015,05,25,00,04,0.00
2015,05,25,00,05,0.00
2015,05,25,00,06,0.00
2015,05,25,00,07,0.00
2015,05,25,00,08,0.00
2015,05,25,00,09,0.00
2015,05,25,00,10,0.00
2015,05,25,00,11,0.00
2015,05,25,00,12,0.00
2015,05,25,00,13,0.00
2015,05,25,00,14,0.00
2015,05,25,00,15,0.00
2015,05,25,00,16,0.00
2015,05,25,00,17,0.00
2015,05,25,00,18,0.00
2015,05,25,00,19,0.00
2015,05,25,00,20,0.00
2015,05,25,00,21,0.00
2015,05,25,00,22,0.00
2015,05,25,00,23,0.00
2015,05,25,00,24,0.00
2015,05,25,00,25,0.00
2015,05,25,00,26,0.00
2015,05,25,00,27,0.00
2015,05,25,00,28,0.00
2015,05,25,00,29,0.00
2015,05,25,00,30,0.00
2015,05,25,00,31,0.00
2015,05,25,00,32,0.00
2015,05,25,00,33,0.00
2015,05,25,00,34,0.00
2015,05,25,00,35,0.00
2015,05,25,00,36,0.00
2015,05,25,00,37,0.00
2015,05,25,00,38,0.00
2015,05,25,00,39,0.00
2015,05,25,00,40,0.00
2015,05,25,00,41,0.00
2015,05,25,00,42,0.00
2015,05,25,00,43,0.00
2015,05,25,00,44,0.00
2015,05,25,00,45,0.00
2015,05,25,00,46,0.00
2015,05,25,00,47,0.00
2015,05,25,00,48,0.00
2015,05,25,00,49,0.00
2015,05,25,00,50,0.00
2015,05,25,00,51,0.00
2015,05,25,00,52,0.00
2015,05,25,00,53,0.00
2015,05,25,00,54,0.00
2015,05,25,00,55,0.00
2015,05,25,00,56,0.00
2015,05,25,00,57,0.00
2015,05,25,00,58,0.00
2015,05,25,00,59,0.00
2015,05,25,01,00,0.00
2015,05,25,01,01,0.00
2015,05,25,01,02,0.00
2015,05,25,01,03,0.00
2015,05,25,01,04,0.00
2015,05,25,01,05,0.00
2015,05,25,01,06,0.00
2015,05,25,01,07,0.00
2015,05,25,01,08,0.00
2015,05,25,01,09,0.00
2015,05,25,01,10,0.00
2015,05,25,01,11,0.00
2015,05,25,01,12,0.00
2015,05,25,01,13,0.00
2015,05,25,01,14,0.00
2015,05,25,01,15,0.00
2015,05,25,01,16,0.00
2015,05,25,01,17,0.00
2015,05,25,01,18,0.00
2015,05,25,01,19,0.00
2015,05,25,01,20,0.00
2015,05,25,01,21,0.00
2015,05,25,01,22,0.00
2015,05,25,01,23,0.00
2015,05,25,01,24,0.00
2015,05,25,01,25,0.00
2015,05,25,01,26,0.00
2015,05,25,01,27,0.00
2015,05,25,01,28,0.00
2015,05,25,01,29,0.00
2015,05,25,01,30,0.00
2015,05,25,01,31,0.00
2015,05,25,01,32,0.00
2015,05,25,01,33,0.00
2015,05,25,01,34,0.00
2015,05,25,01,35,0.00
2015,05,25,01,36,0.00
2015,05,25,01,37,0.00
2015,05,25,01,38,0.00
2015,05,25,01,39,0.00
2015,05,25,01,40,0.00
2015,05,25,01,41,0.00
2015,05,25,01,42,0.00
2015,05,25,01,43,0.00
2015,05,25,01,44,0.00
2015,05,25,01,45,0.00
2015,05,25,01,46,0.00
2015,05,25,01,47,0.00
2015,05,25,01,48,0.00
2015,05,25,01,49,0.00
2015,05,25,01,50,0.00
2015,05,25,01,51,0.00
2015,05,25,01,52,0.00
2015,05,25,01,53,0.00
2015,05,25,01,54,0.00
2015,05,25,01,55,0.00
2015,05,25,01,56,0.00
2015,05,25,01,57,0.00
2015,05,25,01,58,0.00
2015,05,25,01,59,0.00
2015,05,25,02,00,0.00
2015,05,25,02,01,0.00
2015,05,25,02,02,0.00
2015,05,25,02,03,0.00
2015,05,25,02,04,0.00
2015,05,25,02,05,0.00
2015,05,25,02,06,0.00
2015,05,25,02,07,0.00
2015,05,25,02,08,0.00
2015,05,25,02,09,0.00
2015,05,25,02,10,0.00
2015,05,25,02,11,0.00
2015,05,25,02,12,0.00
2015,05,25,02,13,0.00
2015,05,25,02,14,0.00
2015,05,25,02,15,0.00
2015,05,25,02,16,0.00
2015,05,25,02,17,0.00
2015,05,25,02,18,0.00
2015,05,25,02,19,0.00
2015,05,25,02,20,0.00
2015,05,25,02,21,0.00
2015,05,25,02,22,0.00
2015,05,25,02,23,0.00
2015,05,25,02,24,0.00
2015,05,25,02,25,0.00
2015,05,25,02,26,0.00
2015,05,25,02,27,0.00
2015,05,25,02,28,0.00
2015,05,25,02,29,0.00
2015,05,25,02,30,0.00
2015,05,25,02,31,0.00
2015,05,25,02,32,0.00
2015,05,25,02,33,0.00
2015,05,25,02,34,0.00
2015,05,25,02,35,0.00
2015,05,25,02,36,0.00
2015,05,25,02,37,0.00
2015,05,25,02,38,0.00
2015,05,25,02,39,0.00
2015,05,25,02,40,0.00
2015,05,25,02,41,0.00
2015,05,25,02,42,0.00
2015,05,25,02,43,0.00
2015,05,25,02,44,0.00
2015,05,25,02,45,0.00
2015,05,25,02,46,0.00
2015,05,25,02,47,0.00
2015,05,25,02,48,0.00
2015,05,25,02,49,0.00
2015,05,25,02,50,0.00
2015,05,25,02,51,0.00
2015,05,25,02,52,0.00
2015,05,25,02,53,0.00
2015,05,25,02,54,0.00
2015,05,25,02,55,0.00
2015,05,25,02,56,0.00
2015,05,25,02,57,0.00
2015,05,25,02,58,0.00
2015,05,25,02,59,0.00
2015,05,25,03,00,0.00
2015,05,25,03,01,0.00
2015,05,25,03,02,0.00
2015,05,25,03,03,0.00
2015,05,25,03,06,0.00
2015,05,25,03,07,0.00
2015,05,25,03,08,0.00
2015,05,25,03,09,0.00
2015,05,25,03,10,0.00
2015,05,25,03,11,0.00
2015,05,25,03,12,0.00
2015,05,25,03,13,0.00
2015,05,25,03,14,0.00
2015,05,25,03,15,0.00
2015,05,25,03,16,0.00
2015,05,25,03,17,0.00
2015,05,25,03,18,0.00
2015,05,25,03,19,0.00
2015,05,25,03,20,0.00
2015,05,25,03,21,0.00
2015,05,25,03,22,0.00
2015,05,25,03,23,0.00
2015,05,25,03,24,0.00
2015,05,25,03,25,0.00
2015,05,25,03,26,0.00
2015,05,25,03,27,0.00
2015,05,25,03,28,0.00
2015,05,25,03,29,0.00
2015,05,25,03,30,0.00
2015,05,25,03,31,0.00
2015,05,25,03,32,0.00
2015,05,25,03,33,0.00
2015,05,25,03,34,0.00
2015,05,25,03,35,0.00
2015,05,25,03,36,0.00
2015,05,25,03,37,0.00
2015,05,25,03,38,0.00
2015,05,25,03,39,0.00
2015,05,25,03,40,0.00
2015,05,25,03,41,0.00
2015,05,25,03,42,0.00
2015,05,25,03,43,0.00
2015,05,25,03,44,0.00
2015,05,25,03,45,0.00
2015,05,25,03,46,0.00
2015,05,25,03,47,0.00
2015,05,25,03,48,0.00
2015,05,25,03,49,0.00
2015,05,25,03,50,0.00
2015,05,25,03,51,0.00
2015,05,25,03,52,0.00
2015,05,25,03,53,0.00
2015,05,25,03,54,0.00
2015,05,25,03,55,0.00
2015,05,25,03,56,0.00
2015,05,25,03,57,0.00
2015,05,25,03,58,0.00
2015,05,25,03,59,0.00
2015,05,25,04,00,0.00
2015,05,25,04,01,0.00
2015,05,25,04,02,0.00
2015,05,25,04,03,0.00
2015,05,25,04,04,0.00
2015,05,25,04,05,0.00
2015,05,25,04,06,0.00
2015,05,25,04,07,0.00
2015,05,25,04,08,0.00
2015,05,25,04,09,0.00
2015,05,25,04,10,0.00
2015,05,25,04,11,0.00
2015,05,25,04,12,0.00
2015,05,25,04,13,0.00
2015,05,25,04,14,0.00
2015,05,25,04,15,0.00
2015,05,25,04,16,0.00
2015,05,25,04,17,0.00
2015,05,25,04,18,0.00
2015,05,25,04,19,0.00
2015,05,25,04,20,0.00
2015,05,25,04,21,0.00
2015,05,25,04,22,0.00
2015,05,25,04,23,0.00
2015,05,25,04,24,0.00
2015,05,25,04,25,0.00
2015,05,25,04,26,0.00
2015,05,25,04,27,0.00
2015,05,25,04,28,0.00
2015,05,25,04,29,0.00
2015,05,25,04,30,0.00
2015,05,25,04,31,0.00
2015,05,25,04,32,0.00
2015,05,25,04,33,0.00
2015,05,25,04,34,0.00
2015,05,25,04,35,0.00
2015,05,25,04,36,0.00
2015,05,25,04,37,0.00
2015,05,25,04,38,0.00
2015,05,25,04,39,0.00
2015,05,25,04,40,0.00
2015,05,25,04,41,0.00
2015,05,25,04,42,0.00
2015,05,25,04,43,0.00
2015,05,25,04,44,0.00
2015,05,25,04,45,0.00
2015,05,25,04,46,0.00
2015,05,25,04,47,0.00
2015,05,25,04,48,0.00
2015,05,25,04,49,0.00
2015,05,25,04,50,0.00
2015,05,25,04,51,0.00
2015,05,25,04,52,0.00
2015,05,25,04,53,0.00
2015,05,25,04,54,0.00
2015,05,25,04,55,0.00
2015,05,25,04,56,0.00
2015,05,25,04,57,0.00
2015,05,25,04,58,0.00
2015,05,25,04,59,0.00
2015,05,25,05,00,0.00
2015,05,25,05,01,0.00
2015,05,25,05,02,0.00
2015,05,25,05,03,0.00
2015,05,25,05,04,0.00
2015,05,25,05,05,0.00
2015,05,25,05,06,0.00
2015,05,25,05,07,0.00
2015,05,25,05,08,0.00
2015,05,25,05,09,0.00
2015,05,25,05,10,0.00
2015,05,25,05,11,0.00
2015,05,25,05,12,0.00
2015,05,25,05,13,0.00
2015,05,25,05,14,0.00
2015,05,25,05,15,0.00
2015,05,25,05,16,0.00
2015,05,25,05,17,0.00
2015,05,25,05,18,0.00
2015,05,25,05,19,0.00
2015,05,25,05,20,0.00
2015,05,25,05,21,0.00
2015,05,25,05,22,0.00
2015,05,25,05,23,0.00
2015,05,25,05,24,0.00
2015,05,25,05,25,0.00
2015,05,25,05,26,0.00
2015,05,25,05,27,0.00
2015,05,25,05,28,0.00
2015,05,25,05,29,0.00
2015,05,25,05,30,0.00
2015,05,25,05,31,0.00
2015,05,25,05,32,2.50
2015,05,25,05,33,5.00
2015,05,25,05,34,5.00
2015,05,25,05,35,5.00
2015,05,25,05,36,5.00
2015,05,25,05,37,5.00
2015,05,25,05,38,5.00
2015,05,25,05,39,5.00
2015,05,25,05,40,5.00
2015,05,25,05,41,6.00
2015,05,25,05,42,7.00
2015,05,25,05,43,7.00
2015,05,25,05,44,7.00
2015,05,25,05,45,7.00
2015,05,25,05,46,7.00
2015,05,25,05,47,7.00
2015,05,25,05,48,7.00
2015,05,25,05,49,7.00
2015,05,25,05,50,7.00
2015,05,25,05,51,7.00
2015,05,25,05,52,8.00
2015,05,25,05,53,9.00
2015,05,25,05,54,10.00
2015,05,25,05,55,11.00
2015,05,25,05,56,11.00
2015,05,25,05,57,11.50
2015,05,25,05,58,12.00
2015,05,25,05,59,12.00
2015,05,25,06,00,12.00
2015,05,25,06,01,13.00
2015,05,25,06,02,14.00
2015,05,25,06,03,14.00
2015,05,25,06,04,15.00
2015,05,25,06,05,15.00
2015,05,25,06,06,14.00
2015,05,25,06,07,15.00
2015,05,25,06,08,16.00
2015,05,25,06,09,16.00
2015,05,25,06,10,17.00
2015,05,25,06,11,18.50
2015,05,25,06,12,19.00
2015,05,25,06,13,20.00
2015,05,25,06,14,23.50
2015,05,25,06,15,27.90
2015,05,25,06,16,31.40
2015,05,25,06,17,34.00
2015,05,25,06,18,36.00
2015,05,25,06,19,37.90
2015,05,25,06,20,39.00
2015,05,25,06,21,39.50
2015,05,25,06,22,40.90
2015,05,25,06,23,43.90
2015,05,25,06,24,46.00
2015,05,25,06,25,46.00
2015,05,25,06,26,47.50
2015,05,25,06,27,50.90
2015,05,25,06,28,53.00
2015,05,25,06,29,50.00
2015,05,25,06,30,46.50
2015,05,25,06,31,46.00
2015,05,25,06,32,46.00
2015,05,25,06,33,49.30
2015,05,25,06,34,57.80
2015,05,25,06,35,66.00
2015,05,25,06,36,72.50
2015,05,25,06,37,79.50
2015,05,25,06,38,91.10
2015,05,25,06,39,98.60
2015,05,25,06,40,108.50
2015,05,25,06,41,123.30
2015,05,25,06,42,120.30
2015,05,25,06,43,106.50
2015,05,25,06,44,95.30
2015,05,25,06,45,83.30
2015,05,25,06,46,71.70
2015,05,25,06,47,66.00
2015,05,25,06,48,62.50
2015,05,25,06,49,58.10
2015,05,25,06,50,57.00
2015,05,25,06,51,57.10
2015,05,25,06,52,56.90
2015,05,25,06,53,60.40
2015,05,25,06,54,64.90
2015,05,25,06,55,78.00
2015,05,25,06,56,93.30
2015,05,25,06,57,97.00
2015,05,25,06,58,93.70
2015,05,25,06,59,86.70
2015,05,25,07,00,80.00
2015,05,25,07,01,74.50
2015,05,25,07,02,69.50
2015,05,25,07,03,62.70
2015,05,25,07,04,53.70
2015,05,25,07,05,46.60
2015,05,25,07,06,42.20
2015,05,25,07,07,39.50
2015,05,25,07,08,39.00
2015,05,25,07,09,39.50
2015,05,25,07,10,40.00
2015,05,25,07,11,40.90
2015,05,25,07,12,42.00
2015,05,25,07,13,42.90
2015,05,25,07,14,45.30
2015,05,25,07,15,48.00
2015,05,25,07,16,50.90
2015,05,25,07,17,54.30
2015,05,25,07,18,57.00
2015,05,25,07,19,58.90
2015,05,25,07,20,61.00
2015,05,25,07,21,62.00
2015,05,25,07,22,62.50
2015,05,25,07,23,64.90
2015,05,25,07,24,68.40
2015,05,25,07,25,71.80
2015,05,25,07,26,75.40
2015,05,25,07,27,78.90
2015,05,25,07,28,81.90
2015,05,25,07,29,83.00
2015,05,25,07,30,83.40
2015,05,25,07,31,84.00
2015,05,25,07,32,85.90
2015,05,25,07,33,89.00
2015,05,25,07,34,91.40
2015,05,25,07,35,93.90
2015,05,25,07,36,94.00
2015,05,25,07,37,92.10
2015,05,25,07,38,90.60
2015,05,25,07,39,90.00
2015,05,25,07,40,90.00
2015,05,25,07,41,90.00
2015,05,25,07,42,88.10
2015,05,25,07,43,81.70
2015,05,25,07,44,74.60
2015,05,25,07,45,70.60
2015,05,25,07,46,69.00
2015,05,25,07,47,69.00
2015,05,25,07,48,69.00
2015,05,25,07,49,69.00
2015,05,25,07,50,68.10
2015,05,25,07,51,66.00
2015,05,25,07,52,64.10
2015,05,25,07,53,63.00
2015,05,25,07,54,62.50
2015,05,25,07,55,62.00
2015,05,25,07,56,61.00
2015,05,25,07,57,60.00
2015,05,25,07,58,59.10
2015,05,25,07,59,57.00
2015,05,25,08,00,55.10
2015,05,25,08,01,53.50
2015,05,25,08,02,52.00
2015,05,25,08,03,51.00
2015,05,25,08,04,51.00
2015,05,25,08,05,51.00
2015,05,25,08,06,52.30
2015,05,25,08,07,55.00
2015,05,25,08,08,56.90
2015,05,25,08,09,58.00
2015,05,25,08,10,58.00
2015,05,25,08,11,58.00
2015,05,25,08,12,59.80
2015,05,25,08,13,64.20
2015,05,25,08,14,69.20
2015,05,25,08,15,74.20
2015,05,25,08,16,80.20
2015,05,25,08,17,86.70
2015,05,25,08,18,91.30
2015,05,25,08,19,91.60
2015,05,25,08,20,85.70
2015,05,25,08,21,77.80
2015,05,25,08,22,70.80
2015,05,25,08,23,64.60
2015,05,25,08,24,60.10
2015,05,25,08,25,58.00
2015,05,25,08,26,62.30
2015,05,25,08,27,71.70
2015,05,25,08,28,81.10
2015,05,25,08,29,88.40
2015,05,25,08,30,91.00
2015,05,25,08,31,95.50
2015,05,25,08,32,100.90
2015,05,25,08,33,104.20
2015,05,25,08,34,109.70
2015,05,25,08,35,116.80
2015,05,25,08,36,123.80
2015,05,25,08,37,129.20
2015,05,25,08,38,131.00
2015,05,25,08,39,127.60
2015,05,25,08,40,120.90
2015,05,25,08,41,110.80
2015,05,25,08,42,102.60
2015,05,25,08,43,100.90
2015,05,25,08,44,102.00
2015,05,25,08,45,104.50
2015,05,25,08,46,106.10
2015,05,25,08,47,105.00
2015,05,25,08,48,105.00
2015,05,25,08,49,106.90
2015,05,25,08,50,109.90
2015,05,25,08,51,111.90
2015,05,25,08,52,113.00
2015,05,25,08,53,113.50
2015,05,25,08,54,116.80
2015,05,25,08,55,122.20
2015,05,25,08,56,127.20
2015,05,25,08,57,130.90
2015,05,25,08,58,132.00
2015,05,25,08,59,131.00
2015,05,25,09,00,130.90
2015,05,25,09,01,133.00
2015,05,25,09,02,133.10
2015,05,25,09,03,131.10
2015,05,25,09,04,131.80
2015,05,25,09,05,134.50
2015,05,25,09,06,132.50
2015,05,25,09,07,128.60
2015,05,25,09,08,129.40
2015,05,25,09,09,134.40
2015,05,25,09,10,140.10
2015,05,25,09,11,145.80
2015,05,25,09,12,149.40
2015,05,25,09,13,152.80
2015,05,25,09,14,156.40
2015,05,25,09,15,159.80
2015,05,25,09,16,162.40
2015,05,25,09,17,164.80
2015,05,25,09,18,167.00
2015,05,25,09,19,167.90
2015,05,25,09,20,169.00
2015,05,25,09,21,169.00
2015,05,25,09,22,171.20
2015,05,25,09,23,175.80
2015,05,25,09,24,179.40
2015,05,25,09,25,182.80
2015,05,25,09,26,186.40
2015,05,25,09,27,188.90
2015,05,25,09,28,190.00
2015,05,25,09,29,189.10
2015,05,25,09,30,183.90
2015,05,25,09,31,174.50
2015,05,25,09,32,163.10
2015,05,25,09,33,151.50
2015,05,25,09,34,142.90
2015,05,25,09,35,139.00
2015,05,25,09,36,136.80
2015,05,25,09,37,134.00
2015,05,25,09,38,133.10
2015,05,25,09,39,132.00
2015,05,25,09,40,131.10
2015,05,25,09,41,129.10
2015,05,25,09,42,128.00
2015,05,25,09,43,128.00
2015,05,25,09,44,128.90
2015,05,25,09,45,130.90
2015,05,25,09,46,132.90
2015,05,25,09,47,134.00
2015,05,25,09,48,134.40
2015,05,25,09,49,136.80
2015,05,25,09,50,139.90
2015,05,25,09,51,142.40
2015,05,25,09,52,144.00
2015,05,25,09,53,143.10
2015,05,25,09,54,141.60
2015,05,25,09,55,139.20
2015,05,25,09,56,137.00
2015,05,25,09,57,136.10
2015,05,25,09,58,135.00
2015,05,25,09,59,133.60
2015,05,25,10,00,130.20
2015,05,25,10,01,126.60
2015,05,25,10,02,124.10
2015,05,25,10,03,122.10
2015,05,25,10,04,120.60
2015,05,25,10,05,119.10
2015,05,25,10,06,118.00
2015,05,25,10,07,118.00
2015,05,25,10,08,118.00
2015,05,25,10,09,118.00
2015,05,25,10,10,118.00
2015,05,25,10,11,118.00
2015,05,25,10,12,118.90
2015,05,25,10,13,121.30
2015,05,25,10,14,124.80
2015,05,25,10,15,127.40
2015,05,25,10,16,129.80
2015,05,25,10,17,132.00
2015,05,25,10,18,132.90
2015,05,25,10,19,135.40
2015,05,25,10,20,138.80
2015,05,25,10,21,144.60
2015,05,25,10,22,153.90
2015,05,25,10,23,165.40
2015,05,25,10,24,172.00
2015,05,25,10,25,178.30
2015,05,25,10,26,184.60
2015,05,25,10,27,179.90
2015,05,25,10,28,173.60
2015,05,25,10,29,168.20
2015,05,25,10,30,165.00
2015,05,25,10,31,165.00
2015,05,25,10,32,165.90
2015,05,25,10,33,167.00
2015,05,25,10,34,167.90
2015,05,25,10,35,170.40
2015,05,25,10,36,173.80
2015,05,25,10,37,179.10
2015,05,25,10,38,186.10
2015,05,25,10,39,193.10
2015,05,25,10,40,200.10
2015,05,25,10,41,206.20
2015,05,25,10,42,213.10
2015,05,25,10,43,223.40
2015,05,25,10,44,234.90
2015,05,25,10,45,245.10
2015,05,25,10,46,251.40
2015,05,25,10,47,253.00
2015,05,25,10,48,253.00
2015,05,25,10,49,252.10
2015,05,25,10,50,249.60
2015,05,25,10,51,245.80
2015,05,25,10,52,240.30
2015,05,25,10,53,235.60
2015,05,25,10,54,232.20
2015,05,25,10,55,229.60
2015,05,25,10,56,228.10
2015,05,25,10,57,224.30
2015,05,25,10,58,218.80
2015,05,25,10,59,211.90
2015,05,25,11,00,202.50
2015,05,25,11,01,192.10
2015,05,25,11,02,182.40
2015,05,25,11,03,175.30
2015,05,25,11,04,170.60
2015,05,25,11,05,169.00
2015,05,25,11,06,170.40
2015,05,25,11,07,174.70
2015,05,25,11,08,180.20
2015,05,25,11,09,183.90
2015,05,25,11,10,185.00
2015,05,25,11,11,184.10
2015,05,25,11,12,181.20
2015,05,25,11,13,177.60
2015,05,25,11,14,175.10
2015,05,25,11,15,172.60
2015,05,25,11,16,169.20
2015,05,25,11,17,166.10
2015,05,25,11,18,165.00
2015,05,25,11,19,165.90
2015,05,25,11,20,168.80
2015,05,25,11,21,173.20
2015,05,25,11,22,176.90
2015,05,25,11,23,176.20
2015,05,25,11,24,172.60
2015,05,25,11,25,170.10
2015,05,25,11,26,169.00
2015,05,25,11,27,169.90
2015,05,25,11,28,171.00
2015,05,25,11,29,170.10
2015,05,25,11,30,168.10
2015,05,25,11,31,167.00
2015,05,25,11,32,167.00
2015,05,25,11,33,167.00
2015,05,25,11,34,166.10
2015,05,25,11,35,165.00
2015,05,25,11,36,166.80
2015,05,25,11,37,170.40
2015,05,25,11,38,174.70
2015,05,25,11,39,181.10
2015,05,25,11,40,189.50
2015,05,25,11,41,197.20
2015,05,25,11,42,200.90
2015,05,25,11,43,202.00
2015,05,25,11,44,198.90
2015,05,25,11,45,192.80
2015,05,25,11,46,186.90
2015,05,25,11,47,182.10
2015,05,25,11,48,181.90
2015,05,25,11,49,184.40
2015,05,25,11,50,186.90
2015,05,25,11,51,190.20
2015,05,25,11,52,195.70
2015,05,25,11,53,203.50
2015,05,25,11,54,211.20
2015,05,25,11,55,214.90
2015,05,25,11,56,219.10
2015,05,25,11,57,223.00
2015,05,25,11,58,226.10
2015,05,25,11,59,233.10
2015,05,25,12,00,237.00
2015,05,25,12,01,241.30
2015,05,25,12,02,246.00
2015,05,25,12,03,248.20
2015,05,25,12,04,255.10
2015,05,25,12,05,262.20
2015,05,25,12,06,267.70
2015,05,25,12,07,272.40
2015,05,25,12,08,274.00
2015,05,25,12,09,274.00
2015,05,25,12,10,272.60
2015,05,25,12,11,270.10
2015,05,25,12,12,269.00
2015,05,25,12,13,270.40
2015,05,25,12,14,272.90
2015,05,25,12,15,273.10
2015,05,25,12,16,270.60
2015,05,25,12,17,265.00
2015,05,25,12,18,260.00
2015,05,25,12,19,247.40
2015,05,25,12,20,227.90
2015,05,25,12,21,220.80
2015,05,25,12,22,217.10
2015,05,25,12,23,216.00
2015,05,25,12,24,215.10
2015,05,25,12,25,212.60
2015,05,25,12,26,209.20
2015,05,25,12,27,205.60
2015,05,25,12,28,203.10
2015,05,25,12,29,202.00
2015,05,25,12,30,203.80
2015,05,25,12,31,207.40
2015,05,25,12,32,208.10
2015,05,25,12,33,207.00
2015,05,25,12,34,207.00
2015,05,25,12,35,207.90
2015,05,25,12,36,211.20
2015,05,25,12,37,217.10
2015,05,25,12,38,223.70
2015,05,25,12,39,229.20
2015,05,25,12,40,232.90
2015,05,25,12,41,232.20
2015,05,25,12,42,225.90
2015,05,25,12,43,218.80
2015,05,25,12,44,214.60
2015,05,25,12,45,211.20
2015,05,25,12,46,209.00
2015,05,25,12,47,204.90
2015,05,25,12,48,198.60
2015,05,25,12,49,196.10
2015,05,25,12,50,193.60
2015,05,25,12,51,191.10
2015,05,25,12,52,189.10
2015,05,25,12,53,187.10
2015,05,25,12,54,187.80
2015,05,25,12,55,192.20
2015,05,25,12,56,198.10
2015,05,25,12,57,206.90
2015,05,25,12,58,213.00
2015,05,25,12,59,213.00
2015,05,25,13,00,216.60
2015,05,25,13,01,217.90
2015,05,25,13,02,212.60
2015,05,25,13,03,211.00
2015,05,25,13,04,213.20
2015,05,25,13,05,216.90
2015,05,25,13,06,219.40
2015,05,25,13,07,223.70
2015,05,25,13,08,231.10
2015,05,25,13,09,242.30
2015,05,25,13,10,253.10
2015,05,25,13,11,257.00
2015,05,25,13,12,257.00
2015,05,25,13,13,256.10
2015,05,25,13,14,255.90
2015,05,25,13,15,258.40
2015,05,25,13,16,260.90
2015,05,25,13,17,261.10
2015,05,25,13,18,258.60
2015,05,25,13,19,254.30
2015,05,25,13,20,247.90
2015,05,25,13,21,241.80
2015,05,25,13,22,240.80
2015,05,25,13,23,246.10
2015,05,25,13,24,254.50
2015,05,25,13,25,262.20
2015,05,25,13,26,265.00
2015,05,25,13,27,261.90
2015,05,25,13,28,253.50
2015,05,25,13,29,242.60
2015,05,25,13,30,230.10
2015,05,25,13,31,216.70
2015,05,25,13,32,203.60
2015,05,25,13,33,192.10
2015,05,25,13,34,184.60
2015,05,25,13,35,183.00
2015,05,25,13,36,183.90
2015,05,25,13,37,186.40
2015,05,25,13,38,188.90
2015,05,25,13,39,190.90
2015,05,25,13,40,191.10
2015,05,25,13,41,190.00
2015,05,25,13,42,191.40
2015,05,25,13,43,195.70
2015,05,25,13,44,201.20
2015,05,25,13,45,206.20
2015,05,25,13,46,209.90
2015,05,25,13,47,212.40
2015,05,25,13,48,215.80
2015,05,25,13,49,219.40
2015,05,25,13,50,221.90
2015,05,25,13,51,223.00
2015,05,25,13,52,222.10
2015,05,25,13,53,220.60
2015,05,25,13,54,219.10
2015,05,25,13,55,218.00
2015,05,25,13,56,218.00
2015,05,25,13,57,217.10
2015,05,25,13,58,215.10
2015,05,25,13,59,212.60
2015,05,25,14,00,210.10
2015,05,25,14,01,208.10
2015,05,25,14,02,207.00
2015,05,25,14,03,207.00
2015,05,25,14,04,207.00
2015,05,25,14,05,212.90
2015,05,25,14,06,222.20
2015,05,25,14,07,226.80
2015,05,25,14,08,229.40
2015,05,25,14,09,230.00
2015,05,25,14,10,230.00
2015,05,25,14,11,230.00
2015,05,25,14,12,231.80
2015,05,25,14,13,235.40
2015,05,25,14,14,237.90
2015,05,25,14,15,239.00
2015,05,25,14,16,239.00
2015,05,25,14,17,237.60
2015,05,25,14,18,236.00
2015,05,25,14,19,237.40
2015,05,25,14,20,243.10
2015,05,25,14,21,252.50
2015,05,25,14,22,263.00
2015,05,25,14,23,273.50
2015,05,25,14,24,284.00
2015,05,25,14,25,295.00
2015,05,25,14,26,305.50
2015,05,25,14,27,314.10
2015,05,25,14,28,318.00
2015,05,25,14,29,320.20
2015,05,25,14,30,323.00
2015,05,25,14,31,322.50
2015,05,25,14,32,322.00
2015,05,25,14,33,322.50
2015,05,25,14,34,326.10
2015,05,25,14,35,334.00
2015,05,25,14,36,343.00
2015,05,25,14,37,351.10
2015,05,25,14,38,355.90
2015,05,25,14,39,357.00
2015,05,25,14,40,356.10
2015,05,25,14,41,355.00
2015,05,25,14,42,353.60
2015,05,25,14,43,350.20
2015,05,25,14,44,346.60
2015,05,25,14,45,345.00
2015,05,25,14,46,349.50
2015,05,25,14,47,360.00
2015,05,25,14,48,369.60
2015,05,25,14,49,378.00
2015,05,25,14,50,386.10
2015,05,25,14,51,395.00
2015,05,25,14,52,405.50
2015,05,25,14,53,411.90
2015,05,25,14,54,413.00
2015,05,25,14,55,397.20
2015,05,25,14,56,369.50
2015,05,25,14,57,354.00
2015,05,25,14,58,346.60
2015,05,25,14,59,347.20
2015,05,25,15,00,354.50
2015,05,25,15,01,366.30
2015,05,25,15,02,379.00
2015,05,25,15,03,390.40
2015,05,25,15,04,400.10
2015,05,25,15,05,399.50
2015,05,25,15,06,389.00
2015,05,25,15,07,378.50
2015,05,25,15,08,369.00
2015,05,25,15,09,361.80
2015,05,25,15,10,358.10
2015,05,25,15,11,361.00
2015,05,25,15,12,360.10
2015,05,25,15,13,349.90
2015,05,25,15,14,343.80
2015,05,25,15,15,340.10
2015,05,25,15,16,339.00
2015,05,25,15,17,341.70
2015,05,25,15,18,347.20
2015,05,25,15,19,351.40
2015,05,25,15,20,356.10
2015,05,25,15,21,360.00
2015,05,25,15,22,377.50
2015,05,25,15,23,402.10
2015,05,25,15,24,399.70
2015,05,25,15,25,385.70
2015,05,25,15,26,368.50
2015,05,25,15,27,351.60
2015,05,25,15,28,348.10
2015,05,25,15,29,356.50
2015,05,25,15,30,362.00
2015,05,25,15,31,371.50
2015,05,25,15,32,383.00
2015,05,25,15,33,390.20
2015,05,25,15,34,398.10
2015,05,25,15,35,389.40
2015,05,25,15,36,376.90
2015,05,25,15,37,391.00
2015,05,25,15,38,417.00
2015,05,25,15,39,411.60
2015,05,25,15,40,401.20
2015,05,25,15,41,404.00
2015,05,25,15,42,347.30
2015,05,25,15,43,271.70
2015,05,25,15,44,258.10
2015,05,25,15,45,251.00
2015,05,25,15,46,244.70
2015,05,25,15,47,239.70
2015,05,25,15,48,238.90
2015,05,25,15,49,234.00
2015,05,25,15,50,238.10
2015,05,25,15,51,249.80
2015,05,25,15,52,264.30
2015,05,25,15,53,275.80
2015,05,25,15,54,283.60
2015,05,25,15,55,290.60
2015,05,25,15,56,300.90
2015,05,25,15,57,313.40
2015,05,25,15,58,326.30
2015,05,25,15,59,334.90
2015,05,25,16,00,335.10
2015,05,25,16,01,339.00
2015,05,25,16,02,356.70
2015,05,25,16,03,371.00
2015,05,25,16,04,395.30
2015,05,25,16,05,425.00
2015,05,25,16,06,425.00
2015,05,25,16,07,425.00
2015,05,25,16,08,383.90
2015,05,25,16,09,326.30
2015,05,25,16,10,323.00
2015,05,25,16,11,346.60
2015,05,25,16,12,333.00
2015,05,25,16,13,267.60
2015,05,25,16,14,263.50
2015,05,25,16,15,266.80
2015,05,25,16,16,260.70
2015,05,25,16,17,267.10
2015,05,25,16,18,270.10
2015,05,25,16,19,267.30
2015,05,25,16,20,262.00
2015,05,25,16,21,258.00
2015,05,25,16,22,258.00
2015,05,25,16,23,258.00
2015,05,25,16,24,255.00
2015,05,25,16,25,250.60
2015,05,25,16,26,250.40
2015,05,25,16,27,251.90
2015,05,25,16,28,251.60
2015,05,25,16,29,249.20
2015,05,25,16,30,247.20
2015,05,25,16,31,248.20
2015,05,25,16,32,256.90
2015,05,25,16,33,273.60
2015,05,25,16,34,296.70
2015,05,25,16,35,314.80
2015,05,25,16,36,320.00
2015,05,25,16,37,320.00
2015,05,25,16,38,320.00
2015,05,25,16,39,320.00
2015,05,25,16,40,331.20
2015,05,25,16,41,377.40
2015,05,25,16,42,424.60
2015,05,25,16,43,401.60
2015,05,25,16,44,352.50
2015,05,25,16,45,341.00
2015,05,25,16,46,341.00
2015,05,25,16,47,341.00
2015,05,25,16,48,372.00
2015,05,25,16,49,393.40
2015,05,25,16,50,340.20
2015,05,25,16,51,285.10
2015,05,25,16,52,268.40
2015,05,25,16,53,264.00
2015,05,25,16,54,265.30
2015,05,25,16,55,272.40
2015,05,25,16,56,287.10
2015,05,25,16,57,338.00
2015,05,25,16,58,388.00
2015,05,25,16,59,377.90
2015,05,25,17,00,363.10
2015,05,25,17,01,393.50
2015,05,25,17,02,387.90
2015,05,25,17,03,334.00
2015,05,25,17,04,416.40
2015,05,25,17,05,517.00
2015,05,25,17,06,517.00
2015,05,25,17,07,517.00
2015,05,25,17,08,517.00
2015,05,25,17,09,376.10
2015,05,25,17,10,198.60
2015,05,25,17,11,188.90
2015,05,25,17,12,180.90
2015,05,25,17,13,174.20